When you browse on this site, cookies collect data to enhance your experience and personalize the content and advertising you see.
Visit our Privacy Policy to learn more. By continuing to use the site, you agree to this use of cookies and data.
  • Em Portugal
  • Lista de países
  • Para 7 dias
  • Temperatura da água
  • Mapas de satélite
  • Mapa do tempo
  • Widgets de tempo
  • user-avatar
    Iniciar Sessão

    Previsão horária em Saurimo

    Hoje, 17 Janeiro, Quinta-feira

    Tempo Temperatura Precipitação Vento Pressão Humidade
    00:00 +20°C° 0 mm 1 m/s 671 mmHg 95%
    01:00 +20°C° 0 mm 1 m/s 670 mmHg 95%
    02:00 +20°C° 0 mm 1 m/s 670 mmHg 95%
    03:00 +19°C° 0 mm 1 m/s 670 mmHg 96%
    04:00 +17°C° 0 mm 0 m/s 670 mmHg 96%
    05:00 +20°C° 0 mm 1 m/s 670 mmHg 94%
    06:00 +20°C° 0 mm 1 m/s 671 mmHg 93%
    07:00 +21°C° 0 mm 1 m/s 671 mmHg 91%
    08:00 +23°C° 0.1 mm 1 m/s 671 mmHg 83%
    09:00 +25°C° 0.1 mm 1 m/s 672 mmHg 74%
    10:00 +27°C° 0.1 mm 2 m/s 672 mmHg 66%
    11:00 +28°C° 0.3 mm 2 m/s 672 mmHg 63%
    12:00 +29°C° 0.3 mm 2 m/s 671 mmHg 60%
    13:00 +29°C° 0.3 mm 2 m/s 671 mmHg 57%
    14:00 +28°C° 0.7 mm 2 m/s 670 mmHg 64%
    15:00 +27°C° 0.7 mm 2 m/s 670 mmHg 71%
    16:00 +27°C° 0.7 mm 2 m/s 669 mmHg 78%
    17:00 +25°C° 0.6 mm 2 m/s 669 mmHg 83%
    18:00 +23°C° 0.6 mm 2 m/s 669 mmHg 88%
    19:00 +22°C° 0.6 mm 1 m/s 669 mmHg 93%
    20:00 +21°C° 0.1 mm 1 m/s 670 mmHg 93%
    21:00 +21°C° 0.1 mm 1 m/s 670 mmHg 94%
    22:00 +21°C° 0.1 mm 1 m/s 671 mmHg 94%
    23:00 +21°C° 0.2 mm 1 m/s 670 mmHg 95%

    Amanhã, 18 Janeiro, Sexta-feira

    Tempo Temperatura Precipitação Vento Pressão Humidade
    00:00 +18°C° 0.2 mm 0 m/s 670 mmHg 95%
    01:00 +18°C° 0.2 mm 0 m/s 670 mmHg 95%
    02:00 +18°C° 0 mm 0 m/s 670 mmHg 96%
    03:00 +20°C° 0 mm 1 m/s 669 mmHg 96%
    04:00 +20°C° 0 mm 1 m/s 669 mmHg 97%
    05:00 +20°C° 0.1 mm 1 m/s 670 mmHg 96%
    06:00 +20°C° 0.1 mm 1 m/s 670 mmHg 95%
    07:00 +21°C° 0.1 mm 1 m/s 671 mmHg 94%
    08:00 +21°C° 0.1 mm 2 m/s 671 mmHg 88%
    09:00 +24°C° 0.1 mm 2 m/s 671 mmHg 82%
    10:00 +25°C° 0.1 mm 3 m/s 672 mmHg 76%
    11:00 +26°C° 0.7 mm 3 m/s 671 mmHg 75%
    12:00 +26°C° 0.7 mm 3 m/s 671 mmHg 73%
    13:00 +27°C° 0.7 mm 3 m/s 671 mmHg 71%
    14:00 +27°C° 0.7 mm 3 m/s 670 mmHg 75%
    15:00 +26°C° 0.7 mm 3 m/s 670 mmHg 79%
    16:00 +26°C° 0.7 mm 2 m/s 669 mmHg 83%
    17:00 +24°C° 1.2 mm 2 m/s 670 mmHg 87%
    18:00 +23°C° 1.2 mm 2 m/s 670 mmHg 90%
    19:00 +21°C° 1.2 mm 1 m/s 670 mmHg 93%
    20:00 +21°C° 0.1 mm 1 m/s 670 mmHg 93%
    21:00 +21°C° 0.1 mm 1 m/s 671 mmHg 93%
    22:00 +19°C° 0.1 mm 0 m/s 671 mmHg 94%
    23:00 +18°C° 0 mm 0 m/s 671 mmHg 94%

    Depois de amanhã, 19 Janeiro, Sábado

    Tempo Temperatura Precipitação Vento Pressão Humidade
    00:00 +20°C° 0 mm 1 m/s 670 mmHg 95%
    01:00 +20°C° 0 mm 1 m/s 670 mmHg 96%
    02:00 +20°C° 0 mm 1 m/s 670 mmHg 95%
    03:00 +17°C° 0 mm 0 m/s 669 mmHg 95%
    04:00 +17°C° 0 mm 0 m/s 669 mmHg 95%
    05:00 +18°C° 0 mm 0 m/s 670 mmHg 94%
    06:00 +18°C° 0 mm 0 m/s 670 mmHg 93%
    07:00 +19°C° 0 mm 0 m/s 671 mmHg 91%
    08:00 +22°C° 0.1 mm 1 m/s 671 mmHg 88%
    09:00 +23°C° 0.1 mm 1 m/s 671 mmHg 85%
    10:00 +24°C° 0.1 mm 1 m/s 672 mmHg 82%
    11:00 +25°C° 0.1 mm 2 m/s 671 mmHg 75%
    12:00 +26°C° 0.1 mm 2 m/s 671 mmHg 69%
    13:00 +28°C° 0.1 mm 2 m/s 671 mmHg 62%
    14:00 +27°C° 0.6 mm 2 m/s 670 mmHg 71%
    15:00 +25°C° 0.6 mm 2 m/s 670 mmHg 79%
    16:00 +24°C° 0.6 mm 2 m/s 669 mmHg 87%
    17:00 +23°C° 0.6 mm 2 m/s 670 mmHg 90%
    18:00 +21°C° 0.6 mm 2 m/s 670 mmHg 92%
    19:00 +20°C° 0.6 mm 2 m/s 670 mmHg 95%
    20:00 +20°C° 0.2 mm 2 m/s 671 mmHg 96%
    21:00 +20°C° 0.2 mm 2 m/s 671 mmHg 96%
    22:00 +19°C° 0.2 mm 2 m/s 672 mmHg 97%
    23:00 +19°C° 0.8 mm 2 m/s 671 mmHg 97%

    20 Janeiro, Domingo

    Tempo Temperatura Precipitação Vento Pressão Humidade
    00:00 +19°C° 0.8 mm 2 m/s 671 mmHg 98%
    01:00 +20°C° 0.8 mm 1 m/s 670 mmHg 98%
    02:00 +20°C° 0.6 mm 1 m/s 670 mmHg 98%
    03:00 +20°C° 0.6 mm 1 m/s 670 mmHg 98%
    04:00 +20°C° 0.6 mm 1 m/s 670 mmHg 98%
    05:00 +19°C° 0.7 mm 2 m/s 671 mmHg 98%
    06:00 +19°C° 0.7 mm 2 m/s 671 mmHg 97%
    07:00 +19°C° 0.7 mm 2 m/s 672 mmHg 97%
    08:00 +20°C° 0.2 mm 2 m/s 672 mmHg 92%
    09:00 +21°C° 0.2 mm 3 m/s 672 mmHg 87%
    10:00 +22°C° 0.2 mm 3 m/s 673 mmHg 82%
    11:00 +23°C° 0 mm 4 m/s 672 mmHg 76%
    12:00 +25°C° 0 mm 4 m/s 672 mmHg 70%
    13:00 +26°C° 0 mm 5 m/s 671 mmHg 64%
    14:00 +26°C° 0 mm 4 m/s 671 mmHg 65%
    15:00 +25°C° 0 mm 4 m/s 670 mmHg 65%
    16:00 +25°C° 0 mm 4 m/s 670 mmHg 66%
    17:00 +24°C° 0 mm 3 m/s 670 mmHg 73%
    18:00 +21°C° 0 mm 2 m/s 670 mmHg 79%
    19:00 +21°C° 0 mm 1 m/s 671 mmHg 86%
    20:00 +20°C° 0 mm 1 m/s 671 mmHg 86%
    21:00 +19°C° 0 mm 1 m/s 671 mmHg 87%
    22:00 +19°C° 0 mm 1 m/s 671 mmHg 87%
    23:00 +19°C° 0 mm 1 m/s 671 mmHg 86%

    21 Janeiro, Segunda-feira

    Tempo Temperatura Precipitação Vento Pressão Humidade
    00:00 +18°C° 0 mm 1 m/s 671 mmHg 85%
    01:00 +18°C° 0 mm 1 m/s 670 mmHg 83%
    02:00 +18°C° 0 mm 1 m/s 670 mmHg 83%
    03:00 +18°C° 0 mm 1 m/s 670 mmHg 83%
    04:00 +16°C° 0 mm 0 m/s 670 mmHg 82%
    05:00 +17°C° 0 mm 0 m/s 670 mmHg 82%
    06:00 +18°C° 0 mm 0 m/s 671 mmHg 82%
    07:00 +18°C° 0 mm 0 m/s 672 mmHg 81%
    08:00 +23°C° 0 mm 1 m/s 672 mmHg 76%
    09:00 +25°C° 0 mm 1 m/s 672 mmHg 70%
    10:00 +27°C° 0 mm 1 m/s 673 mmHg 64%
    11:00 +28°C° 0.1 mm 2 m/s 672 mmHg 60%
    12:00 +29°C° 0.1 mm 2 m/s 671 mmHg 56%
    13:00 +30°C° 0.1 mm 2 m/s 671 mmHg 52%
    14:00 +30°C° 0.1 mm 2 m/s 670 mmHg 53%
    15:00 +30°C° 0.1 mm 2 m/s 670 mmHg 55%
    16:00 +29°C° 0.1 mm 2 m/s 669 mmHg 57%
    17:00 +27°C° 0.3 mm 2 m/s 669 mmHg 67%
    18:00 +25°C° 0.3 mm 1 m/s 669 mmHg 77%
    19:00 +22°C° 0.3 mm 1 m/s 669 mmHg 87%
    20:00 +20°C° 0.7 mm 0 m/s 670 mmHg 89%
    21:00 +19°C° 0.7 mm 0 m/s 670 mmHg 92%
    22:00 +18°C° 0.7 mm 0 m/s 670 mmHg 94%
    23:00 +18°C° 0.2 mm 0 m/s 670 mmHg 94%

    22 Janeiro, Terça-feira

    Tempo Temperatura Precipitação Vento Pressão Humidade
    00:00 +18°C° 0.2 mm 0 m/s 670 mmHg 95%
    01:00 +18°C° 0.2 mm 0 m/s 669 mmHg 95%
    02:00 +17°C° 0 mm 0 m/s 669 mmHg 96%
    03:00 +17°C° 0 mm 0 m/s 669 mmHg 96%
    04:00 +17°C° 0 mm 0 m/s 669 mmHg 96%
    05:00 +18°C° 0 mm 0 m/s 670 mmHg 95%
    06:00 +19°C° 0 mm 0 m/s 670 mmHg 93%
    07:00 +20°C° 0 mm 0 m/s 671 mmHg 92%
    08:00 +23°C° 0.5 mm 1 m/s 671 mmHg 86%
    09:00 +25°C° 0.5 mm 1 m/s 671 mmHg 81%
    10:00 +27°C° 0.5 mm 1 m/s 671 mmHg 75%
    11:00 +27°C° 0.6 mm 2 m/s 671 mmHg 72%
    12:00 +28°C° 0.6 mm 2 m/s 670 mmHg 68%
    13:00 +29°C° 0.6 mm 2 m/s 670 mmHg 65%
    14:00 +28°C° 0.6 mm 2 m/s 669 mmHg 66%
    15:00 +28°C° 0.6 mm 2 m/s 669 mmHg 67%
    16:00 +28°C° 0.6 mm 2 m/s 668 mmHg 69%
    17:00 +26°C° 0.7 mm 1 m/s 669 mmHg 76%
    18:00 +24°C° 0.7 mm 1 m/s 669 mmHg 84%
    19:00 +22°C° 0.7 mm 1 m/s 669 mmHg 92%
    20:00 +22°C° 0.2 mm 1 m/s 669 mmHg 92%
    21:00 +20°C° 0.2 mm 0 m/s 670 mmHg 92%
    22:00 +19°C° 0.2 mm 0 m/s 670 mmHg 92%
    23:00 +19°C° 0 mm 0 m/s 670 mmHg 93%
    Mostrar mais